Location: Kerguer�zec
(48.4509°N, 4.7600°W)
Time: 08:29:54
(UTC+00:00)

ERS-1 Rocket - Pass Details

Date: 09 April 2020
Orbit: 753 x 757 km, 98.5° (Epoch: 24 May)

Event Time Altitude Azimuth Distance (km) Brightness Sun altitude
Exits shadow 22:26:58 43° 254° (WSW) 1,059 3.7 -28.3°
Maximum altitude 22:27:12 43° 262° (W) 1,054 3.8 -28.3°
Drops below altitude 10° 22:32:01 10° 334° (NNW) 2,292 6.4 -28.7°
Sets 22:34:26 0° 341° (NNW) 3,221 7.4 -28.9°
